Location: Finkenwalde
(53.3770°N, 14.6418°E)
Time: 09:49:34
(UTC+00:00)

PSLV R/B - Pass Details

Date: 05 February 2023
Orbit: 492 x 557 km, 97.8° (Epoch: 19 March)

Event Time Altitude Azimuth Distance (km) Brightness Sun altitude
Rises 17:19:45 0° 158° (SSE) 2,578 7.1 -13.3°
Reaches altitude 10° 17:21:48 10° 156° (SSE) 1,707 6.2 -13.6°
Maximum altitude 17:25:27 70° 73° (ENE) 545 3.5 -14.1°
Drops below altitude 10° 17:29:13 10° 349° (N) 1,756 6.4 -14.7°
Sets 17:31:21 0° 348° (NNW) 2,661 7.4 -15.0°
